Hourly Data Report for July 30, 2021

WIARTON A
ONTARIO
Current Station Operator: NAVCAN

44°44'39.000" N
81°06'31.000" W
221.90 m
6119499
71633
YVV

Download Data

Hourly Data (July 2021)
Hourly Data Report for July 30, 2021
TIME
LST
Temp Definition
°C
Dew Point Definition
°C
Rel Hum Definition
%
Precip. Amount Definition
mm

Wind Dir Definition
10's deg

Wind Spd Definition
km/h
Visibility Definition
km
Stn Press Definition
kPa
Hmdx Definition


Wind Chill Definition


Weather Definition


00:00 18.3 14.5 78   2 17 24.1 98.70     LegendNANA
01:00 17.4 13.3 77   3 13 24.1 98.74     Mostly Cloudy
02:00 16.2 12.8 80   2 12 24.1 98.77     LegendNANA
03:00 15.7 11.3 75   3 16 24.1 98.81     LegendNANA
04:00 15.1 11.1 77   2 9 24.1 98.89     Mostly Cloudy
05:00 14.9 10.7 76   2 12 24.1 98.94     LegendNANA
06:00 14.6 10.2 75   3 16 24.1 99.01     LegendNANA
07:00 14.4 9.7 73   3 13 24.1 99.09     Mostly Cloudy
08:00 14.6 9.6 72   2 14 24.1 99.13     LegendNANA
09:00 15.2 9.7 69   3 14 24.1 99.17     LegendNANA
10:00 15.4 9.5 68   1 14 24.1 99.23     Mostly Cloudy
11:00 15.8 8.7 62   2 13 24.1 99.25     LegendNANA
12:00 16.3 8.7 61   33 8 24.1 99.27     LegendNANA
13:00 16.3 9.2 62   35 7 24.1 99.23     Mostly Cloudy
14:00 16.5 9.7 64   35 5 24.1 99.24     LegendNANA
15:00 16.4 9.3 63   33 5 24.1 99.20     LegendNANA
16:00 16.6 9.3 62   28 12 24.1 99.19     Mostly Cloudy
17:00 16.6 9.1 61   29 9 24.1 99.18     LegendNANA
18:00 16.4 9.5 64   29 10 24.1 99.18     LegendNANA
19:00 16.1 10.1 67   29 7 24.1 99.16     Mainly Clear
20:00 14.8 9.9 72   36 3 24.1 99.14     LegendNANA
21:00 11.9 9.7 86   22 3 24.1 99.17     LegendNANA
22:00 10.7 9.1 90   18 4 24.1 99.17     Mainly Clear
23:00 9.3 8.8 97   20 5 24.1 99.15     LegendNANA

Notes on Data Quality.

Legend

  • E = Estimated
  • M = Missing
  • NA = Not Available*
  • [empty] = Indicates an unobserved value
Date modified: